Погода Тас-Тумус

Погода Тас-Тумус : погода сейчас, прогноз погоды и архив. Всё, что Вы хотите узнать о погоде Тас-Тумус!

Поиск расширенной информации на нашем сайте:

Другие новости

Новости СМИ2

Главная страница сайта

Новости сайта

03.07.2017

Напоминаем, что на нашем специализированном сайте Метеоцентр.Азия вы можете получить высокодетализированные автоматические прогнозы погоды по пунктам России, СНГ и мира в авиационном формате (включающие направление и скорость ветра, видимость, явления погоды, количество и форму облачности, нижнюю и верхнюю границу облачности).


Погода Тас-Тумус - сегодня

Время (UTC), дата Ветер
(°,м/с) 
Видим.   Явления Облачность Т
(°С)
Тd
(°С)
f(%) Тe
(°С)
Pmin
(гПа)
dP
(гПа)
Po
(мм)
O2
(г/м3)
Тmin Tmax R s Состояние
почвы
15 17.06.18 тихо ()   20000 м    4/0 средняя 
[Ac trans]
+9 +4.5 73 +9  1001  743  289           
18 17.06.18 тихо ()   20000 м    4/0 средняя 
[Ac trans]
+5.1 +3.7 91 +5  1001.8  0.4  744  294           
21 17.06.18 тихо ()   20000 м    4/0 средняя 
[Ac trans]
+10.6 +7 78 +11  1001.9  0.3  744  287           
03 18.06.18 тихо ()   20000 м  {ливн. осадки}  9/9 600 м кучево-дожд. 
[Cb cap]
+12.6 +1.5 47 +13  1003.3  1.3  745  287           
06 18.06.18 тихо ()   20000 м  {ливн. осадки}  9/9 600 м кучево-дожд. 
[Cb cap]
+14.6 +8 65 +15  1004  0.7  745  284           
09 18.06.18 тихо ()   20000 м  {ливн. осадки}  9/9 600 м кучево-дожд. 
[Cb cap]
+15.6 +9.3 66 +16  1004.1  0.2  746  283           
15 18.06.18 тихо ()   20000 м    8/4 600 м кучево-дожд., средняя 
[Cb calv|Ac trans]
+9.6 +8.6 93 +10  1006.3  0.1  747  289           
18 18.06.18 110 (В) 20000 м    3/3 600 м кучево-дожд. 
[Cb calv]
+9.4 +9.4 100 +9  1007.4  1.1  746  289           
21 18.06.18 110 (В) 20000 м    8/6 600 м кучево-дожд., средняя 
[Cb calv|Ac trans]
+10.2 +9.6 96 +12  1007.6  0.2  748  289           
03 19.06.18 120 (ЮВ) 20000 м  {ливн. осадки}  8/4 600 м кучево-дожд., средняя 
[Cb calv|Ac trans]
+17.5 +11.3 67 +21  1006.6  -0.3  748  281           
06 19.06.18 320 (СЗ) 20000 м  гроза без осадков{ливн. осадки}  9/9 600 м кучево-дожд. 
[Cb cap]
+15.6 +9.7 68 +17  1007.8  0.1  748  283           
09 19.06.18 320 (СЗ) 20000 м  {гроза}  9/6 600 м кучево-дожд., средняя 
[Cb cap|Ac trans]
+17.2 +10.5 65 +21  1006.7  -0.9  748  281           
15 19.06.18 тихо ()   20000 м    6/4 600 м кучево-дожд., средняя 
[Cb calv|Ac trans]
+13.5 +13 97 +19  1005  -0.6  746  284           
18 19.06.18 тихо ()   20000 м    9/9 600 м кучево-дожд. 
[Cb calv]
+10.4 +9.6 95 +11  1004.8  -0.3  746  288           
21 19.06.18 120 (ЮВ) 20000 м    9/9 600 м кучево-дожд. 
[Cb calv]
+15 +12.1 83 +20  1004.5  -0.1  746  283           
03 20.06.18 тихо ()   20000 м    9/6 600 м кучево-дожд., средняя 
[Cb calv|Ac trans]
+20.6 +11.2 55 +24  1003.1  -0.7  745  277           
06 20.06.18 120 (ЮВ) 20000 м    6/3 600 м верхняя 
[Cu med, cong|Cs]
+23 +9.1 41 +23  1001.1  -1.9  744  275           
09 20.06.18 тихо ()   20000 м    8/6 600 м кучево-дожд., средняя 
[Cb calv|Ac trans]
+20 +10 53 +21  1001.1  -0.1  743  277           
15 20.06.18 тихо ()   20000 м    9/6 600 м кучево-дожд., средняя 
[Cb calv|Ac trans]
+16.4 +10.2 67 +18  1000.9  743  281           
18 20.06.18 тихо ()   20000 м    9/6 600 м средняя 
[Sc|Ac trans]
+13.6 +11.3 86 +17  1001.3  -0.4  743  283           
21 20.06.18 120 (ЮВ) 20000 м    9/6 600 м средняя 
[Sc|Ac trans]
+16.2 +12.6 79 +23  1002.3  744  281           
03 21.06.18 120 (ЮВ) 20000 м    9/6 1000 м кучево-дожд., средняя 
[Cb calv|Ac trans]
+19.8 +9.5 51 +21  1003.6  0.8  745  278           
06 21.06.18 120 (ЮВ) 20000 м    9/6 600 м кучево-дожд., средняя 
[Cb calv|Ac trans]
+22.6 +9.4 43 +23  1003.1  -0.3  745  276           
09 21.06.18 110 (В) 20000 м    8/6 600 м кучево-дожд., верхняя 
[Cb calv|Ci fib]
+22.8 +9.5 43 +23  1002.6  -0.5  745  275           
15 21.06.18 тихо ()   20000 м    8/4 600 м кучево-дожд., средняя 
[Cb calv|Ac trans]
+12.8 +12.2 96 +17  1003.1  0.1  745  284           
Время (UTC), дата Ветер
(°,м/с) 
Видим.   Явления Облачность Т
(°С)
Тd
(°С)
f(%) Тe
(°С)
Pmin
(гПа)
dP
(гПа)
Po
(мм)
O2
(г/м3)
Тmin Tmax R s Состояние
почвы

Для получения пояснительной информации подведите курсор к названию столбца.

ПОГОДА Тас-Тумус - архив

Всё, что Вы хотите узнать о погоде Тас-Тумус - удобно и подробно!

Выберите нужную дату (начиная с 1 января 2015* года) и нажмите кнопку "Найти".
Будут отображены архивные сводки погоды по пункту Тас-Тумус, начиная с указанной даты.


Отображать данные в формате CSV (для использования в таблицах Excel)


Внимание! Наш архив погоды предназначен исключительно для личного некоммерческого использования в познавательных целях. Если Вам необходимы официальные справки о состоянии погоды (для производственных, юридических, коммерческих и т.п. целей), обращайтесь в органы Росгидромета.

*Примечание: данная дата относится к архиву по метеостанциям СССР (Россия, СНГ, Балтия).
Архив по метеостанциям Зарубежной Европы и Азии (кроме Китая) хранится 10 дней, по другим регионам земного шара (Китай, Африка, Америка, Австралия, Океания) - 1 день.

Тас-Тумус - район местоположения метеостанции


Название, широта, долгота, высота метеостанции:
Тас-Тумус 64.2°ш. 126.6°д. 76 м над ур. моря [Российская Федерация]

Дополнительная информация

В oтличие oт бoльшинства пoгoдных сайтoв мы публикуем пoдрoбную метеoинфoрмацию в детальнoм прoфессиoнальнoм фoрмате.

Характеристики температуры и влажнoсти вoздуха измеряются на высoте 2 м в тени вдали oт зданий и деревьев.
Скoрoсть ветра измеряется на высoте 10 м (на урoвне рoста челoвека скoрoсть ветра ниже в 1.5-2 раза). Если метеoстанция нахoдится в гoрoде или в лесу, тo скoрoсть ветра занижена на 2-4 м/с пo сравнению с oткрытым местoм. Скoрoсть ветра над акватoриями крупных рек и oзёр, а также на вершинах хoлмoв на 2-5 м/с выше, чем в oбычных услoвиях.
Атмoсфернoе давление в разных тoчках местнoсти мoжет значительнo oтличаться oт давления на метеoстанции, в зависимoсти oт услoвий рельефа (при пoдъёме на 10 м давление пoнижается примернo на 1 мм рт.ст.).